EW8735 Weather Reports


time (UTC)temp
F
wind
direction
speed
knots
gust
knots
rain 1hr
in
rain 24hr
in
rain mn
in
humidity
%
barometer
mb
20260831024558 69 280 0.0 0.0 0.00 0.00 0.00 36 1012.1
20260831023051 71 280 0.0 0.0 0.00 0.00 0.00 34 1012.1
20260831021551 73 281 0.0 0.0 0.00 0.00 0.00 33 1012.0
20260831020050 74 288 0.0 0.0 0.00 0.00 0.00 31 1012.0
20260831014550 75 289 0.0 0.0 0.00 0.00 0.00 31 1012.0
20260831013049 77 289 0.0 0.0 0.00 0.00 0.00 28 1012.0
20260831011555 77 289 0.0 0.0 0.00 0.00 0.00 29 1012.0
20260831010056 77 287 0.0 0.0 0.00 0.00 0.00 28 1012.0
20260831004547 77 285 0.0 0.0 0.00 0.00 0.00 29 1012.1
20260831003049 78 278 0.0 0.0 0.00 0.00 0.00 28 1012.1
20260831001544 78 278 0.0 0.0 0.00 0.00 0.00 29 1012.1
20260831000044 77 278 0.0 0.0 0.00 0.00 0.00 30 1012.3
20260830234544 77 278 0.0 0.0 0.00 0.00 0.00 29 1012.4
20260830233041 78 277 0.0 0.0 0.00 0.00 0.00 28 1012.6
20260830231538 76 277 0.0 0.0 0.00 0.00 0.00 28 1012.6
20260830230038 76 277 0.0 0.0 0.00 0.00 0.00 29 1012.6
20260830224536 76 278 0.0 0.0 0.00 0.00 0.00 30 1012.9
20260830223035 76 277 0.0 0.0 0.00 0.00 0.00 29 1012.9
20260830221536 76 257 0.0 0.0 0.00 0.00 0.00 29 1013.1
20260830220032 76 251 0.0 0.0 0.00 0.00 0.00 31 1013.4
20260830214527 74 251 0.0 0.0 0.00 0.00 0.00 31 1013.6
20260830213025 75 251 0.0 0.0 0.00 0.00 0.00 30 1013.8
20260830211523 75 250 0.0 0.0 0.00 0.00 0.00 32 1013.9
20260830210018 73 248 0.0 0.0 0.00 0.00 0.00 33 1014.1
20260830204516 72 252 0.0 0.0 0.00 0.00 0.00 34 1014.3
20260830203014 71 252 0.0 0.0 0.00 0.00 0.00 36 1014.4
20260830201512 71 252 0.0 0.0 0.00 0.00 0.00 37 1014.6
20260830200013 71 251 0.0 0.0 0.00 0.00 0.00 35 1014.7
20260830194510 72 251 0.0 0.0 0.00 0.00 0.00 35 1014.8
20260830193007 71 266 0.0 0.0 0.00 0.00 0.00 37 1015.0
20260830191504 68 266 0.0 0.0 0.00 0.00 0.00 41 1015.1
20260830190005 68 268 0.0 0.0 0.00 0.00 0.00 39 1015.3
20260830184504 69 279 0.0 0.0 0.00 0.00 0.00 38 1015.5
20260830183002 69 279 0.0 0.0 0.00 0.00 0.00 38 1015.7
20260830181559 67 279 0.0 0.0 0.00 0.00 0.00 43 1015.7
20260830180056 66 220 0.0 0.0 0.00 0.00 0.00 42 1015.6
20260830174605 64 229 0.0 0.0 0.00 0.00 0.00 42 1016.0
20260830173053 64 229 0.0 0.0 0.00 0.00 0.00 44 1016.1
20260830171557 64 229 0.0 0.0 0.00 0.00 0.00 43 1016.1
20260830170050 64 229 0.0 0.0 0.00 0.00 0.00 44 1016.4
20260830164547 62 229 0.0 0.0 0.00 0.00 0.00 48 1016.5
20260830163050 61 229 0.0 0.0 0.00 0.00 0.00 49 1016.6
20260830161544 60 229 0.0 0.0 0.00 0.00 0.00 49 1016.6
20260830160055 60 206 0.0 0.0 0.00 0.00 0.00 50 1016.7
20260830154535 59 199 0.0 0.0 0.00 0.00 0.00 51 1016.7
20260830153032 58 214 0.0 0.0 0.00 0.00 0.00 51 1016.7
20260830151531 58 262 0.0 0.0 0.00 0.00 0.00 52 1016.7
20260830150028 56 317 0.0 0.0 0.00 0.00 0.00 58 1016.8
20260830144528 53 169 0.0 0.0 0.00 0.00 0.00 63 1016.8
20260830143027 51 168 0.0 0.0 0.00 0.00 0.00 67 1016.7
20260830141533 49 166 0.0 0.0 0.00 0.00 0.00 69 1016.7
20260830140023 47 191 0.0 0.0 0.00 0.00 0.00 71 1016.5
20260830134533 46 190 0.0 0.0 0.00 0.00 0.00 74 1016.4
20260830133023 45 192 0.0 0.0 0.00 0.00 0.00 75 1016.4
20260830131523 45 191 0.0 0.0 0.00 0.00 0.00 73 1016.3
20260830130017 45 195 0.0 0.0 0.00 0.00 0.00 74 1016.1
20260830124515 45 195 0.0 0.0 0.00 0.00 0.00 72 1016.1
20260830123011 47 195 0.0 0.0 0.00 0.00 0.00 69 1016.1
20260830121527 48 195 0.0 0.0 0.00 0.00 0.00 69 1016.0
20260830120009 49 195 0.0 0.0 0.00 0.00 0.00 69 1016.0
20260830114510 48 195 0.0 0.0 0.00 0.00 0.00 70 1016.1
20260830113005 48 195 0.0 0.0 0.00 0.00 0.00 70 1015.9
20260830111504 49 195 0.0 0.0 0.00 0.00 0.00 68 1015.6
20260830110002 49 195 0.0 0.0 0.00 0.00 0.00 70 1015.5
20260830104601 49 195 0.0 0.0 0.00 0.00 0.00 70 1015.4
20260830103058 48 195 0.0 0.0 0.00 0.00 0.00 70 1015.4
20260830101557 50 195 0.0 0.0 0.00 0.00 0.00 68 1015.4
20260830100055 49 195 0.0 0.0 0.00 0.00 0.00 70 1015.3
20260830094554 49 198 0.0 0.0 0.00 0.00 0.00 69 1015.2
20260830093053 50 200 0.0 0.0 0.00 0.00 0.00 69 1015.1
20260830091650 50 200 0.0 0.0 0.00 0.00 0.00 68 1015.1
20260830084544 52 200 0.0 0.0 0.00 0.00 0.00 64 1015.2
20260830083048 52 201 0.0 0.0 0.00 0.00 0.00 63 1015.2
20260830081543 53 201 0.0 0.0 0.00 0.00 0.00 62 1015.2
20260830080040 53 201 0.0 0.0 0.00 0.00 0.00 62 1015.3
20260830074538 53 201 0.0 0.0 0.00 0.00 0.00 61 1015.2
20260830073046 53 201 0.0 0.0 0.00 0.00 0.00 61 1015.0
20260830071532 55 204 0.0 0.0 0.00 0.00 0.00 57 1014.9
20260830070029 56 206 0.0 0.0 0.00 0.00 0.00 58 1014.8
20260830064529 56 205 0.0 0.0 0.00 0.00 0.00 56 1014.9
20260830063028 58 212 0.0 0.0 0.00 0.00 0.00 55 1014.9
20260830061546 59 219 0.0 0.0 0.00 0.00 0.00 53 1014.7
20260830060026 60 228 0.0 0.0 0.00 0.00 0.00 51 1014.6
20260830054530 61 193 0.0 0.0 0.00 0.00 0.00 50 1014.7
20260830053025 60 197 0.0 0.0 0.00 0.00 0.00 51 1014.7
20260830051528 59 200 0.0 0.0 0.00 0.00 0.00 52 1014.8
20260830050025 60 227 0.0 0.0 0.00 0.00 0.00 49 1014.8
20260830044523 60 222 0.0 0.0 0.00 0.00 0.00 50 1014.5
20260830043021 61 231 0.0 0.0 0.00 0.00 0.00 49 1014.4
20260830041522 59 200 0.0 0.0 0.00 0.00 0.00 49 1014.4
20260830040020 59 197 0.0 0.0 0.00 0.00 0.00 47 1014.2
20260830034517 59 224 0.0 0.0 0.00 0.00 0.00 45 1014.0
20260830033014 61 272 0.0 0.0 0.00 0.00 0.00 45 1013.6
20260830031513 61 260 0.0 0.0 0.00 0.00 0.00 44 1013.2
20260830030014 62 261 0.0 0.0 0.00 0.00 0.00 43 1013.0